SL-14 DEB, 45337

Orbit data source: Space-Track

SL-14 DEB, 45337 is space debris in LEO originally from a launch on Thu, 15 Aug 1991 UTC launched from the Plesetsk Missile And Space Complex (PKMTR). Debris objects in space refer to the collection of defunct objects orbiting the Earth. Examples of debris include non-operational satellites, rocket bodies, and fragments generated from explosions, collisions, or faulty payload assembly.

Loading next visibility...
Identifier
45337, 1991-056CB
Orbit
LEO
Country
Flag of CISCIS
Related business
Manufacturer
Unknown
Mission
Spacecraft
Bus & Motor
Unknown
Mass
Unknown
Launch date (UTC)
1991-08-15 (35 years ago)
Launch vehicle
Unknown
Launch site
Plesetsk Missile And Space Complex (PKMTR)
Object type
Payload
Rocket body
Debris
Shape & HBR
Unknown shape, 0.1 m
Radar Cross Section
Small (<0.1 m²)

Expand to show TLE details & history
Last TLE update: 2 days ago

TLE from 2 days ago
0 SL-14 DEB
1 45337U 91056CB  26236.36156657 -.00000009  00000-0 -58780-4 0  9994
2 45337  82.5755 110.7711 0041085 163.2991 196.9494 13.13130018310303
Epoch: 2026-08-24T08:40Z
TLE epoch observation values (Epoch: 2026-08-24T08:40:39.351Z)
Latitude
0.00006°
Longitude
7.96278°
Altitude
1,243.72 km
Speed
7.219 km/s
True Right ascension
07h 23m 05s
True Declination
0° 00' 00"
Sunlit
Object was in daylight at epoch
Visualization orbit readout
Latitude
Unknown
Longitude
Unknown
Altitude
Unknown
Speed
Unknown
Apparent Right ascension
Unknown
Apparent Declination
Unknown
Sunlit
N/A
Visualization observer readout
Local Sidereal Time
19:05:17
Azimuth
Unknown
Elevation
Unknown
Doppler factor
Unknown
Orbital elements
Apogee altitude
1,239.493 km
Perigee altitude
1,177.155 km
Semi-major axis
7,586.461 km
Eccentricity
0.00411
Inclination
82.5755°
RAAN
110.7711°
Arg. of periapsis
163.2991°
True anomaly
196.81282°
Mean anomaly
196.9494°
Eccentric anomaly
196.88104°
Mean motion
3.28461 °/min
Orbital period
109.6 mins
BSTAR
-0.00005878
Loading maneuver chart data...
Computing Atmospheric mass density...
Loading historical data...
Loading historical data...
Loading historical data...
Loading historical data...
Loading historical data...
Loading historical data...
Loading historical data...

Documentation

Showing up to 5 results
|